Location: ??????
(41.3794°N, 22.5014°E)
Time: 08:29:11
(UTC+00:00)

NOSS 3-2 (A) - Pass Details

Date: 30 November 2020
Orbit: 791 x 1417 km, 63.4° (Epoch: 20 December)

Event Time Altitude Azimuth Distance (km) Brightness Sun altitude
Rises 17:28:25 0° 222° (SW) 3,320 7.0 -27.0°
Reaches altitude 10° 17:30:45 10° 225° (SW) 2,431 6.2 -27.4°
Maximum altitude 17:36:17 67° 308° (NW) 968 3.5 -28.4°
Enters shadow 17:37:23 56° 360° (N) 1,083 3.6 -28.6°
